This is the latest recevied weather packets stored in our database for station/object CA3NEB-13. If no packets are shown the sender has not sent any weather packets the latest 10 day(s).
| Time | Temp. | Humidity | Pressure | Rain* | Wind** | Luminosity | Snow |
|---|---|---|---|---|---|---|---|
| 1787651154 | 18.33° C | 51% | 1013.5 hPa | - | - | - | - |
| 1787650554 | 18.33° C | 53% | 1013.7 hPa | - | - | - | - |
| 1787649953 | 18.33° C | 54% | 1014.2 hPa | - | - | - | - |
| 1787649354 | 18.33° C | 54% | 1014.5 hPa | - | - | - | - |
| 1787648753 | 18.33° C | 53% | 1014.7 hPa | - | - | - | - |
| 1787648154 | 18.33° C | 53% | 1014.8 hPa | - | - | - | - |
| 1787647553 | 17.78° C | 52% | 1014.7 hPa | - | - | - | - |
| 1787646954 | 17.78° C | 51% | 1014.9 hPa | - | - | - | - |
| 1787646353 | 17.78° C | 54% | 1015 hPa | - | - | - | - |
| 1787645754 | 17.22° C | 59% | 1015.1 hPa | - | - | - | - |
| 1787645154 | 17.22° C | 63% | 1014.9 hPa | - | - | - | - |
| 1787644554 | 17.22° C | 63% | 1014.6 hPa | - | - | - | - |
| 1787643954 | 17.22° C | 64% | 1015.2 hPa | - | - | - | - |
| 1787643353 | 17.22° C | 64% | 1015.2 hPa | - | - | - | - |
| 1787642753 | 17.22° C | 64% | 1015.3 hPa | - | - | - | - |
| 1787642154 | 17.22° C | 64% | 1015.7 hPa | - | - | - | - |
| 1787641555 | 17.22° C | 64% | 1015.6 hPa | - | - | - | - |
| 1787640954 | 17.22° C | 64% | 1015.8 hPa | - | - | - | - |
| 1787640354 | 17.22° C | 64% | 1015.7 hPa | - | - | - | - |
| 1787639754 | 17.22° C | 64% | 1015.8 hPa | - | - | - | - |
| 1787639153 | 17.22° C | 64% | 1015.5 hPa | - | - | - | - |
| 1787638554 | 17.22° C | 64% | 1015.8 hPa | - | - | - | - |
| 1787637954 | 17.22° C | 65% | 1016.2 hPa | - | - | - | - |
| 1787637353 | 17.22° C | 65% | 1016.5 hPa | - | - | - | - |
| 1787636754 | 17.22° C | 65% | 1016.9 hPa | - | - | - | - |
* Rain since midnight (hover to see other rain measurements)
** Current wind speed in m/s (hover to see current wind gust speed)